+ View the NASA Portal
+ Center for Near-Earth Object Studies
IMPORTANT:
The SSD Announcement email list is now available. Major changes are coming in the near future, including possible hostname and/or URL changes. To be notified of such changes, subscribe to this email list.
Please visit
this page
for more details.
Don't show this message again
JPL Small-Body Database Browser
Search:
[
help
]
277602 (2006 AN48)
Classification:
Main-belt Asteroid
SPK-ID:
2277602
[
Ephemeris
|
Orbit Diagram
|
Orbital Elements
|
Mission Design
|
Physical Parameters
|
Discovery Circumstances
]
[ show orbit diagram ]
Orbital Elements at Epoch 2458600.5 (2019-Apr-27.0) TDB
Reference:
JPL 11
(heliocentric ecliptic J2000)
Element
Value
Uncertainty (1-sigma)
Units
e
.0538555754728222
6.2331e-08
a
2.608930935794204
2.4381e-08
au
q
2.468425458878159
1.6429e-07
au
i
10.26263164983223
6.2929e-06
deg
node
158.4186315719241
3.1016e-05
deg
peri
190.0295266857842
5.7695e-05
deg
M
207.1893630183151
4.9274e-05
deg
t
p
2459253.846224719270
(2021-Feb-08.34622472)
0.00021175
TDB
period
1539.190239270632
4.21
2.1576e-05
5.907e-08
d
yr
n
.2338892170798791
3.2786e-09
deg/d
Q
2.74943641271025
2.5694e-08
au
Orbit Determination Parameters
# obs. used (total)
211
data-arc span
6294 days (17.23 yr)
first obs. used
2002-03-10
last obs. used
2019-06-03
planetary ephem.
DE431
SB-pert. ephem.
SB431-N16
condition code
0
norm. resid. RMS
.66381
source
ORB
producer
Otto Matic
solution date
2019-Sep-24 04:47:08
Additional Information
Earth MOID
= 1.46052 au
Jupiter MOID
= 2.49129 au
T_jup
= 3.386
[ show covariance matrix ]
[
Ephemeris
|
Orbit Diagram
|
Orbital Elements
|
Mission Design
|
Physical Parameters
|
Discovery Circumstances
]
Physical Parameter Table
Parameter
Symbol
Value
Units
Sigma
Reference
Notes
absolute magnitude
H
16.4
n/a
MPO433795
277602 (2006 AN48)
Discovered 2006-Jan-08 by Mt. Lemmon Survey at Mount Lemmon
Reference:
20110517/Numbers.arc
Last Updated:
2011-05-20
[
Ephemeris
|
Orbit Diagram
|
Orbital Elements
|
Mission Design
|
Physical Parameters
|
Discovery Circumstances
]
2019-Dec-09 16:16 UT
(server date/time)
Site Manager:
Ryan S. Park
Webmaster
:
Alan B. Chamberlin